, SD

(GMT )
Rapid City

Weather History for KRAP - March, 2013

Change the Weather History Date:

Sunday, March 10, 2013

  Actual Average Record
Temperature  
Mean Temperature 30 °F 34 °F  
Max Temperature 43 °F 46 °F 80 °F (1972)
Min Temperature 16 °F 21 °F -14 °F (1998)
Degree Days  
Heating Degree Days 35 31  
Month to date heating degree days 308 328  
Since 1 July heating degree days 5297 5538  
Cooling Degree Days 0 0  
Month to date cooling degree days 0 0  
Year to date cooling degree days 0 0  
Moisture  
Dew Point 11 °F    
Average Humidity 56    
Maximum Humidity 92    
Minimum Humidity 20    
Precipitation  
Precipitation 0.00 in 0.03 in 0.66 in (1977)
Month to date precipitation T 0.27  
Year to date precipitation 0.61 1.01  
Snow  
Snow 0.00 in 0.30 in 6.00 in (1970)
Month to date snowfall T 2.8  
Since 1 July snowfall 20.4 26.2  
Snow Depth 0.00 in    
Sea Level Pressure  
Sea Level Pressure 30.18 in    
Wind  
Wind Speed 12 mph (North)    
Max Wind Speed 29 mph    
Max Gust Speed 38 mph    
Visibility 10 miles    
Events      
T = Trace of Precipitation, MM = Missing Value Source: NWS Daily Summary

Daily Weather History Graph

Daily Weather History Graph

Search for Another Location

Airport or City:

Trip Planner

Search our weather history database for the weather conditions in past years. The results will help you decide how hot, cold, wet, or windy it might be!

Date:

Astronomy

Mar. 10, 2013 Rise Set
Actual Time 7:12 AM MDT 6:52 PM MDT
Civil Twilight 6:44 AM MDT 7:21 PM MDT
Nautical Twilight 6:10 AM MDT 7:54 PM MDT
Astronomical Twilight 5:36 AM MDT 8:28 PM MDT
Moon 6:15 AM MDT (3/10) 6:02 PM MDT (3/10)
Length of Visible Light 12h 37m
Length of Day
11h 39m
Waning Crescent, 1% of the Moon is Illuminated
Mar 10
Waning Crescent
Mar 11
New
Mar 19
First Quarter
Mar 27
Full
Apr 2
Last Quarter

Hourly Weather History & Observations

Time (MDT) Temp. Windchill Dew Point Humidity Pressure Visibility Wind Dir Wind Speed Gust Speed Precip Events Conditions
12:44 AM 24.8 °F 9.0 °F 17.6 °F 74% 30.09 in 10.0 mi North 25.3 mph 35.7 mph N/A   Mostly Cloudy
12:52 AM 25.0 °F 8.9 °F 18.0 °F 75% 30.18 in 10.0 mi North 26.5 mph 34.5 mph N/A   Scattered Clouds
1:52 AM 24.1 °F 10.1 °F 16.0 °F 71% 30.19 in 10.0 mi North 18.4 mph 25.3 mph N/A   Mostly Cloudy
3:21 AM 24.8 °F 11.9 °F 15.8 °F 69% 30.12 in 10.0 mi North 16.1 mph 21.9 mph N/A   Overcast
3:52 AM 23.0 °F 9.6 °F 17.1 °F 78% 30.21 in 10.0 mi North 16.1 mph - N/A   Overcast
4:52 AM 19.0 °F 6.1 °F 14.0 °F 81% 30.25 in 10.0 mi North 12.7 mph - N/A   Partly Cloudy
5:14 AM 19.4 °F 5.0 °F 14.0 °F 80% 30.16 in 10.0 mi North 16.1 mph - N/A   Mostly Cloudy
5:42 AM 17.6 °F 2.7 °F 14.0 °F 86% 30.17 in 10.0 mi North 16.1 mph - N/A   Partly Cloudy
5:52 AM 18.0 °F 3.6 °F 14.0 °F 84% 30.28 in 10.0 mi North 15.0 mph - N/A   Partly Cloudy
6:52 AM 17.1 °F 3.6 °F 12.9 °F 84% 30.30 in 10.0 mi North 12.7 mph - N/A   Clear
7:52 AM 18.0 °F 8.7 °F 15.1 °F 88% 30.32 in 10.0 mi North 6.9 mph - N/A   Clear
8:52 AM 23.0 °F 10.6 °F 17.1 °F 78% 30.31 in 10.0 mi North 13.8 mph - N/A   Clear
9:52 AM 28.0 °F 13.9 °F 16.0 °F 61% 30.30 in 10.0 mi NNW 23.0 mph 29.9 mph N/A   Mostly Cloudy
10:04 AM 26.6 °F 12.7 °F 14.0 °F 59% 30.19 in 10.0 mi NNW 20.7 mph 28.8 mph N/A   Scattered Clouds
10:52 AM 30.9 °F 17.5 °F 12.9 °F 47% 30.28 in 10.0 mi North 24.2 mph 31.1 mph N/A   Clear
11:52 AM 34.0 °F 22.7 °F 12.0 °F 40% 30.25 in 10.0 mi NNW 19.6 mph 31.1 mph N/A   Clear
12:52 PM 37.0 °F 26.4 °F 9.0 °F 31% 30.21 in 10.0 mi North 20.7 mph 28.8 mph N/A   Clear
1:52 PM 39.9 °F 30.8 °F 8.1 °F 27% 30.19 in 10.0 mi North 18.4 mph 25.3 mph N/A   Clear
2:52 PM 42.1 °F 34.2 °F 6.1 °F 23% 30.16 in 10.0 mi North 16.1 mph 23.0 mph N/A   Clear
3:52 PM 42.1 °F 34.2 °F 5.0 °F 22% 30.13 in 10.0 mi NNE 16.1 mph - N/A   Clear
4:52 PM 42.1 °F 35.2 °F 5.0 °F 22% 30.14 in 10.0 mi NNE 12.7 mph - N/A   Clear
5:52 PM 39.9 °F 32.9 °F 5.0 °F 23% 30.14 in 10.0 mi NE 11.5 mph - N/A   Clear
6:52 PM 30.9 °F 25.2 °F 5.0 °F 33% 30.16 in 10.0 mi East 5.8 mph - N/A   Clear
7:52 PM 26.1 °F 21.9 °F 3.9 °F 39% 30.17 in 10.0 mi Variable 3.5 mph - N/A   Clear
8:52 PM 23.0 °F - 3.0 °F 42% 30.16 in 10.0 mi Calm Calm - N/A   Clear
9:52 PM 23.0 °F - 3.2 °F 43% 30.01 in 10.0 mi Calm Calm - N/A   Clear
10:52 PM 21.9 °F - 5.0 °F 48% 30.09 in 10.0 mi Calm Calm - N/A   Clear
11:52 PM 27.0 °F 23.0 °F 6.1 °F 41% 30.04 in 10.0 mi ESE 3.5 mph - N/A   Clear
12:52 AM 26.1 °F 19.4 °F 7.0 °F 44% 30.01 in 10.0 mi SE 5.8 mph - N/A   Clear